Location: Rimrock Meadows
(47.4808°N, 119.7286°W)
Time: 04:02:29
(UTC-07:00)

Daily predictions for brighter satellites

Satellite Brightness Start Highest point End
(mag) Time Altitude Azimuth Time Altitude Azimuth Time Altitude Azimuth
Cosmos 1953 2.4 00:03:20 10° N 00:07:19 63° ENE 00:07:49 57° ESE
SL-19 R/B 4.4 00:05:29 10° NNE 00:11:44 79° ESE 00:14:12 38° S
Cosmos 2333 Rocket 3.0 00:08:34 10° NW 00:13:50 39° WSW 00:15:37 31° SW
COSMOS 2428 4.2 00:12:15 10° NW 00:16:40 24° WSW 00:18:36 20° SW
SL-16 R/B 2.5 00:14:24 10° NNW 00:20:03 63° ENE 00:22:35 33° SE
Cosmos 1707 3.2 00:24:37 47° E 00:24:43 47° E 00:28:30 10° NNE
H-2A R/B 2.1 00:24:33 55° SE 00:25:23 73° ENE 00:29:40 10° N
Cosmos 1818 3.9 00:26:14 42° SE 00:27:03 46° ESE 00:32:15 10° NE
Cosmos 1980 4.2 00:24:34 10° NW 00:29:58 47° WSW 00:31:29 38° SSW
Mayak -1.3 00:26:38 10° NNE 00:30:54 81° ESE 00:31:30 64° S
Cosmos 2266 Rocket 4.0 00:29:15 10° N 00:35:36 83° W 00:38:07 40° S
Cosmos 2084 Rocket 3.7 00:33:25 10° NW 00:36:57 47° WSW 00:36:57 47° WSW
Iridium 4 Rocket 4.1 00:35:54 35° SW 00:38:10 59° W 00:44:01 10° N
Cosmos 1238 Rocket 4.1 00:38:00 33° ESE 00:38:38 34° E 00:42:22 10° NNE
Cosmos 2297 Rocket 2.1 00:38:31 40° SSW 00:40:40 89° WNW 00:46:23 10° NNE
Cosmos 2227 Rocket 2.2 00:41:33 36° SW 00:44:00 77° WNW 00:49:42 10° NNE
CZ-4C R/B 4.1 00:38:03 10° WNW 00:44:00 27° WSW 00:46:24 23° SW
Meteor 2-11 Rocket 4.4 00:43:21 41° SSW 00:45:41 86° W 00:51:48 10° N
Cosmos 2237 Rocket 3.0 00:42:45 10° NW 00:47:57 37° WSW 00:49:16 33° SW
ISS -3.0 00:47:23 10° WNW 00:50:35 50° NNE 00:51:14 42° NE
Cosmos 1378 3.4 00:52:05 54° W 00:52:19 55° WNW 00:56:03 10° N
Cosmos 1825 Rocket 3.8 00:52:22 49° SE 00:52:58 53° E 00:57:19 10° NNE
Abrixas rocket 4.4 00:50:07 10° WNW 00:50:59 17° WNW 00:50:59 17° WNW
Cosmos 2082 3.7 00:54:44 38° SW 00:57:02 80° WNW 01:02:49 10° NNE
Cosmos 2056 Rocket 4.0 00:53:08 10° NNW 00:58:11 53° ENE 01:00:23 31° SE
Cosmos 923 Rocket 4.0 01:03:59 43° SW 01:05:42 77° WNW 01:10:59 10° NNE
Cosmos 1680 Rocket 3.4 01:05:38 49° SSW 01:07:04 87° ESE 01:12:20 10° NNE
Cosmos 1624 Rocket 4.2 01:03:06 10° NNW 01:08:26 69° ENE 01:10:34 36° SE
Cosmos 2112 Rocket 3.9 01:08:31 50° S 01:09:52 80° ESE 01:15:05 10° NNE
Cosmos 1400 Rocket 2.7 01:10:53 70° SSE 01:11:19 81° E 01:15:28 10° NNE
In-Cosmos 22 4.2 01:15:09 43° SSE 01:16:41 61° E 01:21:59 10° NNE
COSMOS 2455 3.3 01:13:45 24° WSW 01:17:19 59° NW 01:23:18 10° NNE
ALOS 2 3.9 01:17:40 26° WSW 01:18:06 26° W 01:21:48 10° NW
ERBS 4.2 01:14:57 10° WNW 01:16:18 21° WNW 01:16:18 21° WNW
Cosmos 1674 4.0 01:18:40 28° E 01:18:58 28° E 01:22:13 10° NNE
CZ-4B R/B 4.1 01:14:23 10° N 01:19:17 50° WNW 01:21:14 33° WSW
ADEOS Rocket 3.1 01:15:38 10° N 01:21:06 58° WNW 01:23:19 34° SW
Cosmos 1244 Rocket 4.5 01:14:50 10° N 01:21:09 84° W 01:23:40 40° S
Cosmos 1745 Rocket 4.3 01:22:02 10° N 01:28:21 63° ENE 01:31:39 29° SSE
CZ-4B R/B 3.4 01:27:51 19° E 01:29:01 23° ENE 01:31:47 10° NNE
NOSS 3-1 (C) 4.1 01:27:45 31° SE 01:29:11 35° ESE 01:34:53 10° NE
deb Chang Zheng 4 4.1 01:29:05 10° N 01:33:17 50° WNW 01:34:20 40° WSW
Cosmos 1953 Rocket 3.6 01:40:29 54° SW 01:41:17 69° W 01:45:37 10° N
Cosmos 1315 Rocket 2.6 01:44:10 69° S 01:44:37 89° ENE 01:48:35 10° NNE
S3M 4.0 01:44:57 37° S 01:47:36 78° E 01:53:54 10° N
USA 229 DEB 3.6 01:44:50 35° SSW 01:47:56 78° SE 01:54:54 10° NE
USA 229 3.6 01:44:58 35° SSW 01:48:03 78° SE 01:55:00 10° NE
Cosmos-2242 3.1 01:44:58 10° NNW 01:49:12 59° W 01:49:51 52° SW
NOSS 3-1 (A) 4.2 01:47:39 28° SSE 01:49:28 34° ESE 01:55:08 10° NE
Resurs 1-4 Rocket 4.2 01:47:40 10° NE 01:51:11 18° E 01:54:35 10° SE
Cosmos 1758 Rocket 4.2 01:50:16 38° WSW 01:51:22 46° WNW 01:55:43 10° N
Meteor 1-24 Rocket 3.8 01:49:22 40° SSW 01:51:34 79° WNW 01:57:31 10° N
Cosmos 1908 3.0 01:50:32 10° N 01:54:23 82° W 01:54:48 68° SSW
SL-24 R/B 3.6 01:51:07 10° NNE 01:54:47 77° ESE 01:55:14 64° SSE
Meteor 2-5 Rocket 4.3 01:52:40 32° SW 01:55:06 52° WNW 02:00:54 10° N
KORONAS-FOTON 4.0 01:55:29 51° SE 01:56:03 58° E 01:59:50 10° NNE
Cosmos 1689 Rocket 3.3 01:58:08 35° E 01:58:43 39° ENE 02:01:40 10° N
Cosmos 1386 Rocket 4.5 01:53:37 10° N 02:00:02 86° E 02:03:17 31° S
Cosmos 972 Rocket 4.4 01:58:42 33° SW 02:00:50 55° WNW 02:05:47 10° NNE
H-2A R/B 4.3 02:01:40 13° W 02:01:51 13° W 02:03:46 10° WNW
Cosmos 1346 Rocket 2.6 01:59:16 10° NNW 02:03:07 68° W 02:03:34 61° SW
Cosmos 1943 3.3 01:57:49 10° NNW 02:03:34 79° ENE 02:07:25 21° SSE
SL-16 R/B 3.5 01:59:21 10° NW 02:03:42 23° WSW 02:04:27 22° WSW
Landsat 5 3.4 02:03:31 44° SSE 02:04:47 79° ENE 02:08:49 10° N
Cosmos 1300 3.7 02:01:15 10° N 02:04:54 41° ENE 02:06:26 27° SE
Cosmos 1709 Rocket 4.4 01:59:01 10° N 02:05:22 61° ENE 02:09:45 20° SSE
DELTA 2 R/B (1) 4.0 02:05:38 37° S 02:05:38 37° S 02:10:36 10° ESE
Mayak 1.3 02:04:01 10° NNW 02:05:54 13° WNW 02:07:47 10° W
Cosmos 2263 Rocket 2.8 02:04:28 30° SSE 02:06:47 45° ESE 02:12:11 10° NE
MOS 1 Rocket 3.7 02:02:34 10° N 02:08:01 75° WNW 02:10:14 37° SSW
Cosmos 1726 1.9 02:06:58 10° NNW 02:10:39 78° W 02:11:08 64° SSW
Meteor 2-13 Rocket 4.4 02:05:48 10° NNW 02:11:54 79° W 02:14:52 32° S
Meteor 2-10 3.9 02:07:32 10° NNW 02:12:37 89° WSW 02:14:51 34° S
GEOS 3 Rocket 3.8 02:11:55 10° NE 02:17:13 59° SE 02:19:20 35° S
Cosmos 2297 Rocket 4.3 02:21:26 10° W 02:25:33 20° NW 02:29:41 10° N
PSLV R/B 4.1 02:21:40 10° N 02:25:53 50° WNW 02:27:23 34° SW
Cosmos 1553 Rocket 4.5 02:25:43 28° SW 02:28:44 48° WNW 02:34:41 10° N
Cosmos 2227 Rocket 4.4 02:25:15 10° W 02:29:02 18° NW 02:32:52 10° N
CZ-4C R/B 4.0 02:29:56 29° W 02:29:56 29° W 02:32:38 10° NNW
Cosmos 1603 4.3 02:30:17 10° NW 02:35:27 37° WSW 02:37:12 30° SW
SL-14 R/B 3.2 02:34:30 41° S 02:35:45 75° E 02:39:37 10° NNE
USA 234 4.4 02:29:43 10° E 02:35:53 46° NNE 02:42:04 10° NW
Cosmos 2221 2.5 02:32:14 10° N 02:36:40 87° ENE 02:38:48 30° S
Cosmos 1452 Rocket 3.6 02:32:58 10° NNW 02:38:09 57° WSW 02:40:37 30° S
Cosmos 1437 4.4 02:36:29 10° NW 02:38:33 22° W 02:38:33 22° W
Cosmos 1328 4.5 02:45:26 25° SSE 02:47:28 49° E 02:51:21 10° NNE
Cosmos 158 Rocket 4.1 02:45:38 30° SSW 02:48:24 76° WNW 02:53:49 10° NNE
Cosmos 1048 Rocket 4.2 02:46:50 27° S 02:49:38 67° ESE 02:54:53 10° NNE
TELKOM 3 3.3 02:49:48 52° W 02:50:23 82° NNW 02:52:47 10° ENE
Cosmos 2292 4.5 02:52:28 42° SSW 02:53:30 77° W 02:57:30 10° N
Cosmos 1626 2.5 02:52:29 29° SSE 02:54:12 60° E 02:57:54 10° NNE
Meteor 2-19 Rocket 4.4 02:48:10 10° N 02:54:16 89° E 02:59:14 16° S
Cosmos 1674 4.3 02:53:32 20° W 02:54:33 22° WNW 02:57:33 10° NNW
SL-24 R/B - RUBIN 2 4.3 02:56:34 25° S 02:59:22 51° ESE 03:04:01 10° NE
CZ-4B R/B 2.7 03:01:17 25° WSW 03:01:28 25° W 03:04:22 10° NW
BREEZE-M R/B 4.4 02:57:48 10° WNW 03:03:25 63° SSW 03:12:39 10° SE
SL-16 R/B 2.5 02:59:48 14° S 03:05:11 76° WSW 03:11:26 10° NNW
Cosmos 1340 3.5 03:02:35 10° NNW 03:05:59 32° W 03:06:54 28° WSW
IRS-1C 4.3 03:01:11 10° NNE 03:06:32 69° ESE 03:10:25 19° S
Genesis I 3.4 03:04:45 31° SSW 03:06:33 67° SE 03:10:34 10° NE
PSLV R/B 4.2 03:03:35 12° SSE 03:07:22 69° ENE 03:11:34 10° N
Cosmos 1766 Rocket 4.2 03:04:53 17° SSE 03:08:02 50° E 03:12:16 10° NNE
CZ-2D R/B 2.2 03:04:53 10° NNE 03:10:07 76° ESE 03:13:52 19° S
Cosmos 921 Rocket 2.9 03:07:11 10° NNW 03:11:29 88° WSW 03:15:34 12° SSE
Cosmos 2315 Rocket 4.2 03:08:31 22° SSW 03:12:29 60° WNW 03:18:41 10° N
CBERS-1 4.0 03:12:59 10° N 03:18:06 73° WNW 03:21:34 21° SSW
AQUA 3.8 03:14:17 10° N 03:19:04 77° WNW 03:22:13 21° SSW
Aureole 1 Rocket 3.1 03:17:57 26° WSW 03:19:07 36° WNW 03:21:56 10° N
NOSS 3-1 (C) 4.0 03:15:08 16° WSW 03:19:46 53° NW 03:26:20 10° NE
SeaSat 1 2.4 03:15:32 10° SSE 03:20:26 67° WSW 03:25:22 10° NNW
OPS 6432 4.3 03:19:05 28° SW 03:20:46 75° NW 03:23:50 10° NE
IRS-1D 3.6 03:21:29 10° NNE 03:26:53 87° ESE 03:31:10 16° SSW
H-2A R/B 2.7 03:23:38 10° N 03:28:06 65° WNW 03:31:03 20° SSW
Cosmos 1703 3.3 03:27:16 18° S 03:30:10 80° E 03:34:09 10° NNE
Cosmos 1689 Rocket 4.5 03:30:42 12° W 03:30:42 12° W 03:31:56 10° WNW
Resurs 1-4 Rocket 2.2 03:26:16 10° N 03:31:33 72° WNW 03:35:40 17° SSW
Cosmos 1110 Rocket 3.9 03:26:58 10° NNW 03:32:11 74° WSW 03:37:20 10° SSE
Cosmos 1844 Rocket 3.4 03:27:19 12° S 03:32:14 48° ESE 03:37:42 10° NE
ARIANE 5 R/B 2.6 03:27:42 10° NNE 03:32:50 75° ESE 03:37:17 13° S
Cosmos 1408 Rocket 3.6 03:32:05 15° S 03:35:37 81° E 03:40:00 10° N
IRS-P3 4.5 03:31:40 10° N 03:36:51 53° WNW 03:40:50 17° SW
NPP 4.1 03:31:51 10° N 03:37:02 48° WNW 03:41:02 17° SW
Cosmos 1151 Rocket 3.8 03:33:56 10° N 03:38:15 55° ENE 03:42:31 10° SSE
UNKNOWN OBJECT B 3.8 03:34:58 10° NNE 03:38:32 41° E 03:42:06 10° S
NOSS 3-1 (A) 3.9 03:35:04 14° WSW 03:40:02 55° NW 03:46:40 10° NE
Cosmos 2278 Rocket 4.4 03:36:38 10° SE 03:40:36 20° E 03:44:35 10° NE
Helios 1A Rocket 3.7 03:37:22 10° NNE 03:41:22 49° E 03:45:18 10° S
Okean 3 Rocket 4.1 03:38:43 18° SW 03:41:41 44° WNW 03:45:57 10° N
NOSS 2-3 (C) 4.0 03:38:50 18° SSW 03:42:21 75° SE 03:47:53 10° NE
USA 267 3.4 03:36:46 10° ENE 03:43:18 67° SE 03:48:58 14° SW
Cosmos 494 Rocket 4.1 03:39:14 15° SSW 03:43:37 79° ESE 03:48:52 10° NNE
Cosmos 1844 4.5 03:39:38 10° S 03:44:59 47° ESE 03:50:25 10° NE
EP 2 4.2 03:43:38 24° SW 03:45:03 83° NW 03:47:47 10° NE
SL-08 R/B 4.2 03:44:02 16° SSW 03:47:18 32° W 03:51:43 10° NNW
Cosmos 2058 3.1 03:43:47 11° S 03:47:48 77° E 03:52:02 10° NNE
CZ-2D R/B 4.0 03:45:06 10° NNE 03:49:31 62° E 03:53:55 10° S
Cosmos 2263 Rocket 3.3 03:46:09 12° WSW 03:50:51 35° NW 03:56:04 10° NNE
Cosmos 2074 Rocket 4.2 03:44:58 10° NNW 03:51:00 54° W 03:57:01 10° SSW
Cosmos 1455 2.4 03:47:21 10° NNW 03:51:02 51° W 03:54:26 12° S
Meteor 1-11 4.3 03:46:38 14° SSW 03:51:33 69° WNW 03:57:13 10° N
ATLAS 3B R/B 3.8 03:46:02 10° NW 03:52:29 47° NE 03:58:47 10° ESE
Cosmos 1869 4.1 03:49:10 10° N 03:53:02 52° ENE 03:56:52 10° SSE
ADEOS II 3.1 03:47:59 10° NNE 03:53:04 45° E 03:58:05 10° S
Cosmos 2184 Rocket 4.3 03:49:17 10° NNW 03:55:28 53° W 04:01:37 10° SSW
Nadezhda 1 Rocket 4.0 03:49:48 10° S 03:56:01 82° W 04:02:23 10° N
Cosmos 2154 Rocket 4.0 03:51:30 10° N 03:57:49 84° W 04:04:09 10° S
Cosmos 1607 4.4 03:54:18 10° NW 04:00:14 40° WSW 04:06:02 10° S
Cosmos 1743 Rocket 3.6 04:01:46 10° S 04:06:05 84° E 04:10:26 10° N
COSMOS 2406 3.2 04:00:41 10° NNW 04:06:31 81° WSW 04:12:17 10° SSE
Cosmos 2151 3.1 04:12:01 10° SSW 04:16:18 65° WNW 04:20:36 10° N
Cosmos 1302 Rocket 4.1 04:13:07 10° NNW 04:18:20 60° WSW 04:23:33 10° S
USA 234 3.3 04:12:03 10° SE 04:18:36 89° SW 04:25:11 10° NW
Cosmos 2082 Rocket 4.0 04:18:23 10° NNW 04:23:43 38° NE 04:29:00 10° ESE
ADEOS 3.7 04:21:27 10° N 04:26:39 69° WNW 04:31:50 10° SSW
BREEZE-M DEB (TANK) 3.9 04:20:29 10° SW 04:27:00 41° SSE 04:29:59 10° E
Cosmos 2251 Rocket 3.6 04:22:42 10° SSW 04:28:05 82° WNW 04:33:30 10° NNE
SL-24 DEB 4.3 04:25:00 10° S 04:29:47 77° W 04:34:34 10° N
Cosmos 1626 4.4 04:28:31 10° W 04:29:56 12° WNW 04:31:23 10° NW
USA 238 DEB 3.9 04:23:45 10° NW 04:30:54 86° NE 04:38:09 10° SE
USA 238 4.0 04:23:52 10° NW 04:31:01 85° NE 04:38:16 10° SE
Cosmos 220 Rocket 4.0 04:28:08 10° SSW 04:32:30 88° WNW 04:36:50 10° NNE
NOSS 2-3 (D) 4.5 04:29:25 10° WSW 04:34:03 53° NW 04:39:40 10° NE
